Weather History for Key West NAF, FL

Change the Weather History Date:

Saturday, May 25, 2013

  Actual Average Record
Temperature  
Mean Temperature 82 °F -  
Max Temperature 91 °F 85 °F 91 °F (1989)
Min Temperature 77 °F 76 °F 66 °F (2002)
Cooling Degree Days 18    
Growing Degree Days 32 (Base 50)    
Moisture  
Dew Point 71 °F    
Average Humidity 70    
Maximum Humidity 89    
Minimum Humidity 57    
Precipitation  
Precipitation 0.00 in - - ()
Sea Level Pressure  
Sea Level Pressure 30.07 in    
Wind  
Wind Speed 7 mph (ENE)    
Max Wind Speed 21 mph    
Max Gust Speed 41 mph    
Visibility 10 miles    
Events Thunderstorm    
Averages and records for this station are not official NWS values.
T = Trace of Precipitation, MM = Missing Value Source: NWS Daily Summary

Daily Weather History Graph

Daily Weather History Graph

Search for Another Location

Airport:

Trip Planner

Search our weather history database for the weather conditions in past years. The results will help you decide how hot, cold, wet, or windy it might be!

Date:

Astronomy

May. 25, 2013 Rise Set
Actual Time 6:39 AM EDT 8:08 PM EDT
Civil Twilight 6:14 AM EDT 8:33 PM EDT
Nautical Twilight 5:44 AM EDT 9:03 PM EDT
Astronomical Twilight 5:13 AM EDT 9:34 PM EDT
Moon 8:56 PM EDT (5/25) 7:03 AM EDT (5/25)
Length of Visible Light 14h 19m
Length of Day
13h 29m
Full, 100% of the Moon is Illuminated
May 25
Full
May 31
Last Quarter
Jun 8
New
Jun 16
First Quarter
Jun 23
Full

Hourly Weather History & Observations

Time (EDT) Temp. Heat Index Dew Point Humidity Pressure Visibility Wind Dir Wind Speed Gust Speed Precip Events Conditions
12:53 AM 80.1 °F 84.2 °F 73.0 °F 79% 30.06 in 10.0 mi NNE 3.5 mph - N/A   Clear
1:53 AM 80.1 °F 84.2 °F 73.0 °F 79% 30.05 in 10.0 mi Calm Calm - N/A   Clear
2:53 AM 80.1 °F 84.5 °F 73.9 °F 81% 30.04 in 10.0 mi North 3.5 mph - N/A   Mostly Cloudy
3:04 AM 80.6 °F 85.4 °F 73.4 °F 79% 30.04 in 10.0 mi Calm Calm - N/A   Scattered Clouds
3:13 AM 78.8 °F - 73.4 °F 83% 30.04 in 10.0 mi North 3.5 mph - N/A   Mostly Cloudy
3:22 AM 78.8 °F - 73.4 °F 83% 30.04 in 10.0 mi Calm Calm - N/A   Partly Cloudy
3:53 AM 80.1 °F 84.5 °F 73.9 °F 81% 30.03 in 10.0 mi NNW 3.5 mph - N/A   Clear
4:53 AM 77.0 °F - 73.0 °F 88% 30.03 in 10.0 mi Calm Calm - N/A   Clear
5:54 AM 77.0 °F - 73.4 °F 89% 30.04 in 10.0 mi Calm Calm - N/A   Partly Cloudy
6:53 AM 77.0 °F - 73.0 °F 88% 30.05 in 10.0 mi Calm Calm - N/A   Partly Cloudy
7:53 AM 82.0 °F 87.9 °F 73.9 °F 76% 30.07 in 10.0 mi ENE 3.5 mph - N/A   Clear
8:53 AM 84.0 °F 89.0 °F 71.1 °F 65% 30.07 in 10.0 mi East 8.1 mph - N/A   Clear
9:53 AM 86.0 °F 90.1 °F 69.1 °F 57% 30.10 in 10.0 mi East 8.1 mph - N/A   Clear
10:53 AM 87.1 °F 92.8 °F 71.1 °F 59% 30.11 in 10.0 mi East 9.2 mph - N/A   Clear
11:53 AM 87.1 °F 92.8 °F 71.1 °F 59% 30.11 in 10.0 mi ESE 11.5 mph - N/A   Clear
12:53 PM 88.0 °F 94.7 °F 72.0 °F 59% 30.11 in 10.0 mi ESE 13.8 mph - N/A   Clear
1:53 PM 87.1 °F 92.0 °F 70.0 °F 57% 30.11 in 10.0 mi East 8.1 mph - N/A   Overcast
2:53 PM 88.0 °F 95.6 °F 73.0 °F 61% 30.09 in 10.0 mi ESE 16.1 mph - N/A   Partly Cloudy
3:53 PM 88.0 °F 94.7 °F 72.0 °F 59% 30.08 in 10.0 mi East 16.1 mph 41.4 mph N/A   Clear
4:53 PM 87.1 °F 93.6 °F 72.0 °F 61% 30.06 in 10.0 mi ESE 20.7 mph 26.5 mph N/A   Partly Cloudy
5:27 PM 82.4 °F 87.2 °F 71.6 °F 70% 30.06 in 10.0 mi East 19.6 mph - N/A Thunderstorm Thunderstorm
5:42 PM 84.2 °F 89.6 °F 71.6 °F 66% 30.07 in 10.0 mi East 18.4 mph - N/A   Mostly Cloudy
5:53 PM 84.0 °F 89.6 °F 72.0 °F 67% 30.06 in 10.0 mi East 18.4 mph 26.5 mph N/A   Mostly Cloudy
6:53 PM 82.0 °F 84.5 °F 66.9 °F 60% 30.07 in 10.0 mi ENE 15.0 mph 21.9 mph N/A   Mostly Cloudy
7:53 PM 81.0 °F 83.0 °F 66.0 °F 60% 30.07 in 10.0 mi East 11.5 mph - N/A   Overcast
8:53 PM 82.0 °F 85.9 °F 70.0 °F 67% 30.08 in 10.0 mi East 13.8 mph - N/A   Scattered Clouds
9:53 PM 81.0 °F 83.8 °F 68.0 °F 65% 30.09 in 10.0 mi East 15.0 mph - N/A   Clear
10:53 PM 82.0 °F 84.5 °F 66.9 °F 60% 30.11 in 10.0 mi ENE 13.8 mph 20.7 mph N/A   Clear
11:53 PM 81.0 °F 83.3 °F 66.9 °F 62% 30.12 in 10.0 mi ENE 16.1 mph 24.2 mph N/A   Clear